This demonstration page uses our WeatherBlox Daily Observations layout. Learn more.

Left ArrowRight Arrow

Hourly Observations for July 8, 2016

Temp ( °F °C ) Dew Point ( °F °C ) Humidity (%) Winds ( mph kmh ) Pressure ( in mb ) Visibility ( mi km ) Precip ( " mm )
12:51 am 00:51 Clear 82 27.8 49 9.4 32 32 NW 8 13 29.80 1009 10 16 0.00 0.00
1:51 am 01:51 Clear 79 26.1 51 10.6 38 38 Calm 29.82 1010 10 16 0.00 0.00
2:51 am 02:51 Clear 81 27.2 49 9.4 33 33 NNW 10 17 29.82 1010 10 16 0.00 0.00
3:51 am 03:51 Clear 80 26.7 49 9.4 34 34 NW 10 17 29.83 1010 10 16 0.00 0.00
4:51 am 04:51 Clear 75 23.9 51 10.6 43 43 NNW 7 11 29.85 1011 10 16 0.00 0.00
5:51 am 05:51 Sunny 78 25.6 50 10 37 37 N 7 11 29.86 1011 10 16 0.00 0.00
6:51 am 06:51 Sunny 80 26.7 53 11.7 39 39 SSE 5 7 29.88 1012 10 16 0.00 0.00
7:51 am 07:51 Sunny 87 30.6 50 10 28 28 W 9 15 29.88 1012 10 16 0.00 0.00
8:51 am 08:51 Sunny 91 32.8 49 9.4 24 24 WNW 13 20 29.89 1012 10 16 0.00 0.00
9:51 am 09:51 Sunny 94 34.4 53 11.7 25 25 WNW 14 22 29.88 1012 10 16 0.00 0.00
10:51 am 10:51 Sunny 96 35.6 52 11.1 23 23 WNW 13 20 29.87 1012 10 16 0.00 0.00
11:51 am 11:51 Sunny 98 36.7 52 11.1 21 21 undefined N/A 29.85 1011 10 16 0.00 0.00
12:51 pm 12:51 Sunny 100 37.8 51 10.6 19 19 W 10 17 29.83 1010 10 16 0.00 0.00
1:51 pm 13:51 Sunny 100 37.8 47 8.3 16 16 W 8 13 29.81 1009 10 16 0.00 0.00
2:51 pm 14:51 Sunny 102 38.9 48 8.9 16 16 NW 16 26 29.78 1008 10 16 0.00 0.00
3:41 pm 15:41 Sunny 101 38.3 46 7.8 15 15 NNW 16 26 29.65 1004 10 16 0.00 0.00
3:51 pm 15:51 Sunny 102 38.9 46 7.8 15 15 WNW 15 24 29.76 1008 10 16 0.00 0.00
4:51 pm 16:51 Sunny 102 38.9 45 7.2 14 14 WNW 14 22 29.75 1007 10 16 0.00 0.00
5:51 pm 17:51 Sunny 100 37.8 45 7.2 15 15 NW 16 26 29.74 1007 10 16 0.00 0.00
6:51 pm 18:51 Sunny 97 36.1 45 7.2 17 17 NW 17 28 29.76 1008 10 16 0.00 0.00
7:51 pm 19:51 Clear 93 33.9 43 6.1 18 18 WNW 9 15 29.77 1008 10 16 0.00 0.00
8:51 pm 20:51 Clear 88 31.1 43 6.1 21 21 NW 9 15 29.79 1009 10 16 0.00 0.00
9:51 pm 21:51 Clear 87 30.6 42 5.6 21 21 NNW 10 17 29.81 1010 10 16 0.00 0.00
10:51 pm 22:51 Clear 86 30 42 5.6 21 21 NW 10 17 29.81 1010 10 16 0.00 0.00
11:51 pm 23:51 Clear 83 28.3 43 6.1 24 24 WNW 8 13 29.80 1009 10 16 0.00 0.00

Powered by AerisWeather